Location: Lombard
(41.8800°N, 88.0080°W)
Time: 21:29:28
(UTC-06:00)

Transit 2A - Visible Passes

Search period start: 30 November 2023 00:00
Search period end: 10 December 2023 00:00
Orbit: 600 x 953 km, 66.7° (Epoch: 29 November)

Date Brightness Start Highest point End Pass type
(mag) Time Alt. Az. Time Alt. Az. Time Alt. Az.
30 Nov 6.7 16:51:03 10° SW 16:56:07 50° NW 17:00:44 10° NNE visible
01 Dec 8.3 18:02:55 10° WNW 18:04:58 12° NW 18:06:56 10° NNW visible
02 Dec 8.1 17:26:29 10° W 17:29:45 17° NW 17:32:51 10° N visible
03 Dec 7.7 16:50:34 10° WSW 16:54:37 24° NW 16:58:26 10° N visible
06 Dec 8.2 16:51:27 10° WNW 16:53:22 12° NW 16:55:15 10° NNW visible
